| time (UTC) | temp F | wind direction | speed MPH | gust MPH | rain 1hr in | rain 24hr in | rain mn in | humidity % | barometer mb |
| 20260506173409 | 44 | 338 | 2.0 | 3.0 | 0.00 | 0.00 | 0.00 | 64 | 1012.8 |
| 20260506172908 | 44 | 358 | 3.0 | 8.0 | 0.00 | 0.00 | 0.00 | 62 | 1012.9 |
| 20260506171909 | 44 | 352 | 3.0 | 5.0 | 0.00 | 0.00 | 0.00 | 62 | 1013.0 |
| 20260506171410 | 44 | 350 | 3.0 | 5.0 | 0.00 | 0.00 | 0.00 | 64 | 1012.9 |
| 20260506170909 | 44 | 346 | 3.0 | 5.0 | 0.00 | 0.00 | 0.00 | 64 | 1012.9 |
| 20260506165909 | 44 | 344 | 3.0 | 5.0 | 0.00 | 0.00 | 0.00 | 64 | 1013.0 |
| 20260506165408 | 44 | 342 | 3.0 | 6.0 | 0.00 | 0.00 | 0.00 | 66 | 1013.0 |
| 20260506164910 | 43 | 349 | 3.0 | 5.0 | 0.00 | 0.00 | 0.00 | 67 | 1013.0 |
| 20260506164408 | 43 | 342 | 2.0 | 5.0 | 0.00 | 0.00 | 0.00 | 67 | 1013.0 |
| 20260506163909 | 44 | 329 | 3.0 | 5.0 | 0.00 | 0.00 | 0.00 | 67 | 1013.0 |
| 20260506163409 | 44 | 345 | 3.0 | 8.0 | 0.00 | 0.00 | 0.00 | 67 | 1013.0 |
| 20260506162910 | 44 | 343 | 3.0 | 6.0 | 0.00 | 0.00 | 0.00 | 69 | 1012.9 |
| 20260506161908 | 44 | 353 | 3.0 | 5.0 | 0.00 | 0.00 | 0.00 | 69 | 1012.9 |
| 20260506161408 | 44 | 349 | 3.0 | 7.0 | 0.00 | 0.00 | 0.00 | 71 | 1012.9 |
| 20260506160909 | 43 | 357 | 3.0 | 7.0 | 0.00 | 0.00 | 0.00 | 71 | 1012.9 |
| 20260506160409 | 43 | 355 | 2.0 | 5.0 | 0.00 | 0.00 | 0.00 | 70 | 1012.9 |
| 20260506154908 | 43 | 341 | 2.0 | 3.0 | 0.00 | 0.00 | 0.00 | 71 | 1012.7 |
| 20260506153908 | 43 | 6 | 3.0 | 7.0 | 0.00 | 0.00 | 0.00 | 70 | 1012.7 |
| 20260506152409 | 44 | 347 | 2.0 | 8.0 | 0.00 | 0.00 | 0.00 | 67 | 1012.7 |
| 20260506151909 | 44 | 352 | 3.0 | 6.0 | 0.00 | 0.00 | 0.00 | 67 | 1012.7 |
| 20260506151408 | 44 | 349 | 2.0 | 5.0 | 0.00 | 0.00 | 0.00 | 68 | 1012.7 |
| 20260506145409 | 43 | 8 | 2.0 | 8.0 | 0.00 | 0.00 | 0.00 | 66 | 1012.7 |
| 20260506144908 | 43 | 342 | 2.0 | 6.0 | 0.00 | 0.00 | 0.00 | 67 | 1012.6 |
| 20260506144408 | 43 | 342 | 2.0 | 3.0 | 0.00 | 0.00 | 0.00 | 67 | 1012.6 |
| 20260506143909 | 43 | 341 | 3.0 | 5.0 | 0.00 | 0.00 | 0.00 | 67 | 1012.6 |
| 20260506143409 | 43 | 346 | 2.0 | 3.0 | 0.00 | 0.00 | 0.00 | 66 | 1012.5 |
| 20260506142909 | 43 | 5 | 3.0 | 7.0 | 0.00 | 0.00 | 0.00 | 68 | 1012.5 |
| 20260506142410 | 42 | 353 | 2.0 | 5.0 | 0.00 | 0.00 | 0.00 | 68 | 1012.4 |
| 20260506141908 | 43 | 349 | 2.0 | 3.0 | 0.00 | 0.00 | 0.00 | 68 | 1012.5 |
| 20260506141408 | 43 | 356 | 2.0 | 5.0 | 0.00 | 0.00 | 0.00 | 67 | 1012.4 |
| 20260506140909 | 43 | 338 | 2.0 | 5.0 | 0.00 | 0.00 | 0.00 | 67 | 1012.3 |
| 20260506140408 | 43 | 4 | 2.0 | 5.0 | 0.00 | 0.00 | 0.00 | 69 | 1012.3 |
| 20260506135909 | 42 | 354 | 2.0 | 9.0 | 0.00 | 0.00 | 0.00 | 67 | 1012.3 |
| 20260506134910 | 42 | 359 | 2.0 | 5.0 | 0.00 | 0.00 | 0.00 | 66 | 1012.3 |
| 20260506134408 | 42 | 26 | 2.0 | 3.0 | 0.00 | 0.00 | 0.00 | 66 | 1012.3 |
| 20260506133908 | 42 | 294 | 2.0 | 7.0 | 0.00 | 0.00 | 0.00 | 67 | 1012.3 |
| 20260506133408 | 41 | 12 | 2.0 | 6.0 | 0.00 | 0.00 | 0.00 | 67 | 1012.3 |
| 20260506132907 | 41 | 347 | 2.0 | 5.0 | 0.00 | 0.00 | 0.00 | 67 | 1012.3 |
| 20260506132409 | 41 | 191 | 3.0 | 9.0 | 0.00 | 0.00 | 0.00 | 67 | 1012.4 |
| 20260506131909 | 41 | 12 | 2.0 | 7.0 | 0.00 | 0.00 | 0.00 | 69 | 1012.4 |
| 20260506131411 | 41 | 224 | 2.0 | 6.0 | 0.00 | 0.00 | 0.00 | 69 | 1012.4 |
| 20260506130908 | 40 | 334 | 2.0 | 8.0 | 0.00 | 0.00 | 0.00 | 70 | 1012.4 |
| 20260506130408 | 40 | 340 | 1.0 | 7.0 | 0.00 | 0.00 | 0.00 | 70 | 1012.2 |
| 20260506125909 | 40 | 301 | 2.0 | 7.0 | 0.00 | 0.00 | 0.00 | 72 | 1012.3 |
| 20260506125408 | 40 | 249 | 4.0 | 7.0 | 0.00 | 0.00 | 0.00 | 73 | 1012.3 |
| 20260506124909 | 39 | 272 | 3.0 | 7.0 | 0.00 | 0.00 | 0.00 | 73 | 1012.3 |
| 20260506124408 | 39 | 260 | 2.0 | 6.0 | 0.00 | 0.00 | 0.00 | 73 | 1012.3 |
| 20260506123908 | 38 | 167 | 2.0 | 5.0 | 0.00 | 0.00 | 0.00 | 73 | 1012.2 |
| 20260506123408 | 38 | 279 | 2.0 | 8.0 | 0.00 | 0.00 | 0.00 | 73 | 1012.1 |
| 20260506122908 | 37 | 321 | 3.0 | 7.0 | 0.00 | 0.00 | 0.00 | 74 | 1012.1 |
| 20260506122408 | 37 | 237 | 3.0 | 6.0 | 0.00 | 0.00 | 0.00 | 76 | 1012.0 |
| 20260506121909 | 36 | 234 | 3.0 | 6.0 | 0.00 | 0.00 | 0.00 | 77 | 1011.9 |
| 20260506121409 | 35 | 239 | 2.0 | 3.0 | 0.00 | 0.00 | 0.00 | 79 | 1012.0 |
| 20260506120908 | 34 | 228 | 2.0 | 6.0 | 0.00 | 0.00 | 0.00 | 80 | 1012.0 |
| 20260506120408 | 34 | 251 | 3.0 | 6.0 | 0.00 | 0.00 | 0.00 | 83 | 1011.8 |
| 20260506115908 | 33 | 223 | 2.0 | 5.0 | 0.00 | 0.00 | 0.00 | 84 | 1011.8 |
| 20260506115408 | 33 | 225 | 2.0 | 3.0 | 0.00 | 0.00 | 0.00 | 85 | 1011.7 |
| 20260506114909 | 32 | 233 | 1.0 | 3.0 | 0.00 | 0.00 | 0.00 | 86 | 1011.7 |
| 20260506114408 | 32 | 193 | 2.0 | 3.0 | 0.00 | 0.00 | 0.00 | 87 | 1011.7 |
| 20260506113409 | 31 | 217 | 1.0 | 3.0 | 0.00 | 0.00 | 0.00 | 88 | 1011.7 |
| 20260506112909 | 31 | 190 | 2.0 | 3.0 | 0.00 | 0.00 | 0.00 | 88 | 1011.6 |
| 20260506112409 | 30 | 184 | 3.0 | 5.0 | 0.00 | 0.00 | 0.00 | 88 | 1011.5 |
| 20260506111908 | 30 | 170 | 2.0 | 3.0 | 0.00 | 0.00 | 0.00 | 87 | 1011.4 |
| 20260506110409 | 30 | 169 | 2.0 | 3.0 | 0.00 | 0.00 | 0.00 | 86 | 1011.3 |
| 20260506105909 | 30 | 170 | 2.0 | 3.0 | 0.00 | 0.00 | 0.00 | 86 | 1011.3 |
| 20260506104908 | 30 | 169 | 2.0 | 3.0 | 0.00 | 0.00 | 0.00 | 86 | 1011.2 |
| 20260506104407 | 30 | 178 | 2.0 | 3.0 | 0.00 | 0.00 | 0.00 | 85 | 1011.1 |
| 20260506103909 | 30 | 172 | 2.0 | 3.0 | 0.00 | 0.00 | 0.00 | 85 | 1011.1 |
| 20260506103409 | 30 | 173 | 2.0 | 3.0 | 0.00 | 0.00 | 0.00 | 84 | 1011.0 |
| 20260506102908 | 30 | 174 | 2.0 | 3.0 | 0.00 | 0.00 | 0.00 | 83 | 1011.1 |
| 20260506102408 | 31 | 171 | 2.0 | 3.0 | 0.00 | 0.00 | 0.00 | 83 | 1011.0 |
| 20260506101910 | 31 | 182 | 2.0 | 3.0 | 0.00 | 0.00 | 0.00 | 83 | 1011.0 |
| 20260506101409 | 31 | 162 | 2.0 | 3.0 | 0.00 | 0.00 | 0.00 | 82 | 1011.0 |
| 20260506100908 | 32 | 187 | 2.0 | 3.0 | 0.00 | 0.00 | 0.00 | 82 | 1011.0 |
| 20260506100408 | 32 | 178 | 2.0 | 3.0 | 0.00 | 0.00 | 0.00 | 82 | 1011.0 |
| 20260506095908 | 32 | 152 | 2.0 | 3.0 | 0.00 | 0.00 | 0.00 | 81 | 1011.0 |
| 20260506094909 | 33 | 172 | 1.0 | 3.0 | 0.00 | 0.00 | 0.00 | 80 | 1010.9 |
| 20260506094409 | 33 | 171 | 2.0 | 3.0 | 0.00 | 0.00 | 0.00 | 80 | 1011.0 |
| 20260506093909 | 34 | 186 | 2.0 | 3.0 | 0.00 | 0.00 | 0.00 | 80 | 1011.0 |
| 20260506093409 | 34 | 196 | 2.0 | 3.0 | 0.00 | 0.00 | 0.00 | 80 | 1010.9 |
| 20260506092409 | 34 | 259 | 1.0 | 3.0 | 0.00 | 0.00 | 0.00 | 80 | 1011.0 |
| 20260506091908 | 34 | 89 | 1.0 | 3.0 | 0.00 | 0.00 | 0.00 | 80 | 1011.1 |
| 20260506091409 | 34 | 289 | 1.0 | 3.0 | 0.00 | 0.00 | 0.00 | 80 | 1011.1 |
| 20260506090908 | 34 | 352 | 1.0 | 3.0 | 0.00 | 0.00 | 0.00 | 80 | 1011.2 |
| 20260506090409 | 34 | 39 | 1.0 | 3.0 | 0.00 | 0.00 | 0.00 | 79 | 1011.2 |
| 20260506085909 | 35 | 245 | 1.0 | 3.0 | 0.00 | 0.00 | 0.00 | 79 | 1011.2 |
| 20260506085409 | 35 | 257 | 1.0 | 3.0 | 0.00 | 0.00 | 0.00 | 78 | 1011.3 |
| 20260506084909 | 35 | 168 | 2.0 | 5.0 | 0.00 | 0.00 | 0.00 | 77 | 1011.3 |
| 20260506084408 | 36 | 249 | 1.0 | 3.0 | 0.00 | 0.00 | 0.00 | 77 | 1011.3 |
| 20260506083908 | 36 | 200 | 1.0 | 3.0 | 0.00 | 0.00 | 0.00 | 76 | 1011.3 |
| 20260506082908 | 36 | 75 | 1.0 | 3.0 | 0.00 | 0.00 | 0.00 | 75 | 1011.2 |
| 20260506082409 | 37 | 6 | 2.0 | 3.0 | 0.00 | 0.00 | 0.00 | 74 | 1011.2 |
| 20260506081909 | 37 | 36 | 2.0 | 3.0 | 0.00 | 0.00 | 0.00 | 72 | 1011.2 |
| 20260506081409 | 37 | 0 | 2.0 | 3.0 | 0.00 | 0.00 | 0.00 | 71 | 1011.2 |
| 20260506073410 | 38 | 359 | 3.0 | 6.0 | 0.00 | 0.00 | 0.00 | 73 | 1011.0 |
| 20260506072909 | 38 | 341 | 2.0 | 7.0 | 0.00 | 0.00 | 0.00 | 73 | 1011.0 |
| 20260506072407 | 38 | 8 | 2.0 | 5.0 | 0.00 | 0.00 | 0.00 | 72 | 1011.2 |
| 20260506071911 | 38 | 348 | 2.0 | 3.0 | 0.00 | 0.00 | 0.00 | 72 | 1011.2 |
| 20260506071408 | 38 | 349 | 1.0 | 3.0 | 0.00 | 0.00 | 0.00 | 71 | 1011.3 |
| 20260506070909 | 37 | 347 | 1.0 | 3.0 | 0.00 | 0.00 | 0.00 | 70 | 1011.3 |
| 20260506070408 | 37 | 19 | 2.0 | 5.0 | 0.00 | 0.00 | 0.00 | 70 | 1011.3 |
| 20260506062409 | 37 | 342 | 1.0 | 3.0 | 0.00 | 0.00 | 0.00 | 74 | 1011.3 |
| 20260506061909 | 37 | 346 | 2.0 | 5.0 | 0.00 | 0.00 | 0.00 | 73 | 1011.2 |
| 20260506061407 | 37 | 336 | 1.0 | 3.0 | 0.00 | 0.00 | 0.00 | 73 | 1011.3 |
| 20260506060908 | 37 | 303 | 2.0 | 6.0 | 0.00 | 0.00 | 0.00 | 71 | 1011.4 |
| 20260506060409 | 37 | 300 | 1.0 | 3.0 | 0.00 | 0.00 | 0.00 | 71 | 1011.4 |
| 20260506050408 | 38 | 339 | 1.0 | 5.0 | 0.00 | 0.00 | 0.00 | 71 | 1011.3 |
| 20260506044908 | 38 | 358 | 1.0 | 3.0 | 0.00 | 0.00 | 0.00 | 73 | 1011.3 |
| 20260506043909 | 38 | 354 | 2.0 | 5.0 | 0.00 | 0.00 | 0.00 | 71 | 1011.2 |
| 20260506042908 | 38 | 343 | 2.0 | 5.0 | 0.00 | 0.00 | 0.00 | 72 | 1011.2 |
| 20260506040908 | 38 | 310 | 3.0 | 9.0 | 0.00 | 0.00 | 0.00 | 72 | 1010.9 |
| 20260506035909 | 39 | 340 | 2.0 | 6.0 | 0.00 | 0.00 | 0.00 | 72 | 1011.0 |
| 20260506035408 | 39 | 13 | 3.0 | 6.0 | 0.00 | 0.00 | 0.00 | 73 | 1010.8 |
| 20260506034909 | 39 | 351 | 2.0 | 6.0 | 0.00 | 0.00 | 0.00 | 74 | 1010.8 |
| 20260506034408 | 39 | 12 | 3.0 | 8.0 | 0.00 | 0.00 | 0.00 | 74 | 1011.0 |
| 20260506033908 | 39 | 336 | 3.0 | 5.0 | 0.00 | 0.00 | 0.00 | 74 | 1011.0 |
| 20260506032909 | 39 | 354 | 3.0 | 6.0 | 0.00 | 0.00 | 0.00 | 76 | 1010.8 |
| 20260506032408 | 39 | 330 | 2.0 | 5.0 | 0.00 | 0.00 | 0.00 | 78 | 1010.7 |
| 20260506031907 | 39 | 356 | 3.0 | 6.0 | 0.00 | 0.00 | 0.00 | 78 | 1010.9 |
| 20260506031408 | 39 | 7 | 2.0 | 5.0 | 0.00 | 0.00 | 0.00 | 79 | 1010.9 |
| 20260506030908 | 39 | 349 | 3.0 | 7.0 | 0.00 | 0.00 | 0.00 | 79 | 1010.7 |
| 20260506030409 | 39 | 12 | 3.0 | 6.0 | 0.00 | 0.00 | 0.00 | 79 | 1010.7 |
| 20260506025908 | 39 | 4 | 3.0 | 6.0 | 0.00 | 0.00 | 0.00 | 79 | 1010.6 |
| 20260506024909 | 39 | 333 | 3.0 | 6.0 | 0.00 | 0.00 | 0.00 | 80 | 1010.6 |
| 20260506024408 | 39 | 0 | 3.0 | 6.0 | 0.00 | 0.00 | 0.00 | 80 | 1010.5 |
| 20260506023909 | 39 | 354 | 3.0 | 5.0 | 0.00 | 0.00 | 0.00 | 81 | 1010.5 |
| 20260506023408 | 39 | 353 | 3.0 | 5.0 | 0.00 | 0.00 | 0.00 | 81 | 1010.5 |
| 20260506022908 | 39 | 6 | 3.0 | 5.0 | 0.00 | 0.00 | 0.00 | 81 | 1010.3 |
| 20260506022409 | 39 | 22 | 3.0 | 6.0 | 0.00 | 0.00 | 0.00 | 81 | 1010.3 |
| 20260506021909 | 39 | 0 | 3.0 | 6.0 | 0.00 | 0.00 | 0.00 | 81 | 1010.3 |
| 20260506021409 | 39 | 343 | 3.0 | 5.0 | 0.00 | 0.00 | 0.00 | 82 | 1010.2 |
| 20260506020907 | 39 | 11 | 3.0 | 5.0 | 0.00 | 0.00 | 0.00 | 81 | 1010.1 |
| 20260506015909 | 39 | 3 | 3.0 | 5.0 | 0.00 | 0.00 | 0.00 | 81 | 1010.1 |
| 20260506015408 | 39 | 12 | 3.0 | 5.0 | 0.00 | 0.00 | 0.00 | 81 | 1009.9 |
| 20260506014407 | 39 | 15 | 3.0 | 7.0 | 0.00 | 0.00 | 0.00 | 82 | 1009.8 |
| 20260506013908 | 39 | 12 | 3.0 | 6.0 | 0.00 | 0.00 | 0.00 | 81 | 1009.8 |
| 20260506013409 | 40 | 357 | 3.0 | 5.0 | 0.00 | 0.00 | 0.00 | 82 | 1009.6 |
| 20260506012908 | 40 | 7 | 3.0 | 5.0 | 0.00 | 0.00 | 0.00 | 82 | 1009.6 |
| 20260506011908 | 40 | 14 | 4.0 | 7.0 | 0.00 | 0.00 | 0.00 | 82 | 1009.5 |
| 20260506011408 | 40 | 14 | 4.0 | 8.0 | 0.00 | 0.00 | 0.00 | 81 | 1009.4 |
| 20260506010907 | 40 | 13 | 5.0 | 7.0 | 0.00 | 0.00 | 0.00 | 81 | 1009.2 |
| 20260506010409 | 40 | 10 | 5.0 | 7.0 | 0.00 | 0.00 | 0.00 | 80 | 1009.2 |
| 20260506005908 | 40 | 14 | 5.0 | 7.0 | 0.00 | 0.00 | 0.00 | 81 | 1009.2 |
| 20260506005408 | 40 | 10 | 5.0 | 7.0 | 0.00 | 0.00 | 0.00 | 82 | 1009.2 |
| 20260506003908 | 40 | 22 | 4.0 | 7.0 | 0.00 | 0.01 | 0.00 | 82 | 1009.1 |
| 20260506003408 | 40 | 13 | 3.0 | 6.0 | 0.00 | 0.01 | 0.00 | 81 | 1009.1 |
| 20260506002908 | 41 | 13 | 3.0 | 5.0 | 0.00 | 0.01 | 0.00 | 82 | 1009.1 |
| 20260506002408 | 41 | 1 | 2.0 | 3.0 | 0.00 | 0.01 | 0.00 | 80 | 1009.1 |
| 20260506001908 | 41 | 354 | 3.0 | 5.0 | 0.00 | 0.01 | 0.00 | 81 | 1009.1 |
| 20260506001407 | 41 | 353 | 3.0 | 5.0 | 0.00 | 0.02 | 0.00 | 81 | 1009.1 |
| 20260506000907 | 41 | 22 | 3.0 | 5.0 | 0.00 | 0.02 | 0.00 | 82 | 1008.9 |
| 20260506000408 | 41 | 8 | 2.0 | 3.0 | 0.00 | 0.02 | 0.00 | 81 | 1008.9 |
| 20260505235908 | 41 | 26 | 3.0 | 5.0 | 0.00 | 0.02 | 0.00 | 81 | 1008.8 |
| 20260505235408 | 41 | 16 | 3.0 | 3.0 | 0.00 | 0.03 | 0.00 | 81 | 1008.8 |
| 20260505234908 | 41 | 26 | 2.0 | 5.0 | 0.00 | 0.04 | 0.00 | 81 | 1008.7 |
| 20260505234409 | 42 | 14 | 3.0 | 5.0 | 0.00 | 0.04 | 0.00 | 81 | 1008.7 |
| 20260505233908 | 42 | 14 | 3.0 | 5.0 | 0.00 | 0.04 | 0.00 | 81 | 1008.7 |
| 20260505233408 | 42 | 20 | 4.0 | 8.0 | 0.00 | 0.04 | 0.00 | 81 | 1008.6 |
| 20260505232408 | 42 | 20 | 5.0 | 8.0 | 0.00 | 0.04 | 0.00 | 80 | 1008.5 |
| 20260505231908 | 43 | 15 | 5.0 | 7.0 | 0.00 | 0.05 | 0.00 | 79 | 1008.5 |
| 20260505231407 | 43 | 9 | 3.0 | 7.0 | 0.00 | 0.05 | 0.00 | 79 | 1008.5 |
| 20260505230908 | 43 | 20 | 5.0 | 6.0 | 0.00 | 0.05 | 0.00 | 79 | 1008.5 |
| 20260505230408 | 43 | 15 | 3.0 | 5.0 | 0.00 | 0.05 | 0.00 | 78 | 1008.5 |
| 20260505225408 | 44 | 6 | 3.0 | 9.0 | 0.00 | 0.05 | 0.00 | 77 | 1008.3 |
| 20260505224908 | 44 | 9 | 3.0 | 5.0 | 0.00 | 0.05 | 0.00 | 78 | 1008.3 |
| 20260505224408 | 44 | 11 | 3.0 | 7.0 | 0.00 | 0.05 | 0.00 | 77 | 1008.2 |
| 20260505223907 | 45 | 23 | 4.0 | 7.0 | 0.00 | 0.05 | 0.00 | 76 | 1008.0 |
| 20260505223408 | 45 | 5 | 3.0 | 6.0 | 0.00 | 0.05 | 0.00 | 76 | 1008.0 |
| 20260505222908 | 45 | 18 | 3.0 | 7.0 | 0.00 | 0.05 | 0.00 | 75 | 1007.9 |
| 20260505222408 | 46 | 22 | 3.0 | 5.0 | 0.00 | 0.05 | 0.00 | 73 | 1007.9 |
| 20260505221908 | 47 | 11 | 2.0 | 5.0 | 0.00 | 0.05 | 0.00 | 70 | 1007.7 |
| 20260505221408 | 48 | 20 | 3.0 | 9.0 | 0.00 | 0.05 | 0.00 | 70 | 1007.7 |
| 20260505220907 | 48 | 353 | 3.0 | 14.0 | 0.00 | 0.05 | 0.00 | 68 | 1007.4 |
| 20260505220408 | 48 | 353 | 3.0 | 5.0 | 0.00 | 0.05 | 0.00 | 66 | 1007.4 |
| 20260505215908 | 48 | 342 | 3.0 | 5.0 | 0.00 | 0.05 | 0.00 | 66 | 1007.3 |
| 20260505215408 | 49 | 346 | 3.0 | 6.0 | 0.00 | 0.05 | 0.00 | 67 | 1007.2 |
| 20260505214909 | 49 | 0 | 3.0 | 6.0 | 0.00 | 0.05 | 0.00 | 65 | 1007.1 |
| 20260505214407 | 49 | 357 | 3.0 | 5.0 | 0.00 | 0.05 | 0.00 | 65 | 1007.0 |
| 20260505213908 | 49 | 355 | 4.0 | 8.0 | 0.00 | 0.05 | 0.00 | 66 | 1007.1 |
| 20260505213408 | 50 | 344 | 4.0 | 6.0 | 0.00 | 0.05 | 0.00 | 63 | 1007.2 |
| 20260505212908 | 50 | 348 | 3.0 | 6.0 | 0.00 | 0.05 | 0.00 | 63 | 1007.2 |
| 20260505212408 | 51 | 337 | 4.0 | 7.0 | 0.00 | 0.05 | 0.00 | 60 | 1007.1 |
| 20260505211907 | 51 | 354 | 3.0 | 5.0 | 0.00 | 0.05 | 0.00 | 59 | 1007.0 |
| 20260505210908 | 51 | 349 | 2.0 | 7.0 | 0.00 | 0.05 | 0.00 | 61 | 1007.0 |
| 20260505210408 | 51 | 337 | 3.0 | 5.0 | 0.00 | 0.05 | 0.00 | 60 | 1006.9 |
| 20260505205909 | 51 | 6 | 3.0 | 6.0 | 0.00 | 0.05 | 0.00 | 61 | 1006.9 |
| 20260505205407 | 51 | 354 | 3.0 | 5.0 | 0.00 | 0.05 | 0.00 | 58 | 1006.8 |
| 20260505204908 | 52 | 349 | 3.0 | 6.0 | 0.00 | 0.05 | 0.00 | 58 | 1006.7 |
| 20260505203908 | 52 | 359 | 3.0 | 6.0 | 0.00 | 0.05 | 0.00 | 58 | 1006.8 |
| 20260505203407 | 53 | 342 | 4.0 | 6.0 | 0.00 | 0.05 | 0.00 | 57 | 1006.6 |
| 20260505202908 | 53 | 345 | 3.0 | 6.0 | 0.00 | 0.05 | 0.00 | 57 | 1006.6 |
| 20260505202408 | 53 | 357 | 3.0 | 6.0 | 0.00 | 0.05 | 0.00 | 57 | 1006.5 |
| 20260505201908 | 54 | 0 | 3.0 | 5.0 | 0.00 | 0.05 | 0.00 | 55 | 1006.7 |
| 20260505201408 | 54 | 342 | 3.0 | 6.0 | 0.00 | 0.05 | 0.00 | 54 | 1006.7 |
| 20260505200907 | 55 | 350 | 3.0 | 7.0 | 0.00 | 0.05 | 0.00 | 54 | 1006.6 |
| 20260505200408 | 55 | 333 | 3.0 | 9.0 | 0.00 | 0.05 | 0.00 | 56 | 1006.5 |
| 20260505195907 | 54 | 318 | 3.0 | 9.0 | 0.00 | 0.05 | 0.00 | 53 | 1006.5 |
| 20260505195408 | 53 | 267 | 3.0 | 9.0 | 0.00 | 0.05 | 0.00 | 53 | 1006.4 |
| 20260505194407 | 52 | 338 | 3.0 | 7.0 | 0.00 | 0.05 | 0.00 | 59 | 1006.4 |
| 20260505193908 | 52 | 7 | 4.0 | 6.0 | 0.00 | 0.05 | 0.00 | 58 | 1006.4 |
| 20260505192907 | 53 | 357 | 3.0 | 6.0 | 0.00 | 0.05 | 0.00 | 58 | 1006.3 |
| 20260505192407 | 53 | 352 | 3.0 | 7.0 | 0.00 | 0.05 | 0.00 | 56 | 1006.3 |
| 20260505191908 | 53 | 331 | 4.0 | 12.0 | 0.00 | 0.05 | 0.00 | 58 | 1006.3 |
| 20260505191408 | 53 | 319 | 2.0 | 5.0 | 0.00 | 0.05 | 0.00 | 59 | 1006.1 |
| 20260505190908 | 53 | 26 | 4.0 | 16.0 | 0.00 | 0.05 | 0.00 | 55 | 1006.1 |
| 20260505190408 | 52 | 261 | 5.0 | 15.0 | 0.00 | 0.05 | 0.00 | 50 | 1006.0 |
| 20260505185907 | 51 | 341 | 3.0 | 12.0 | 0.00 | 0.05 | 0.00 | 60 | 1006.0 |
| 20260505185407 | 51 | 356 | 3.0 | 6.0 | 0.00 | 0.05 | 0.00 | 63 | 1005.9 |
| 20260505184908 | 50 | 354 | 3.0 | 5.0 | 0.00 | 0.05 | 0.00 | 65 | 1005.9 |
| 20260505184407 | 50 | 357 | 3.0 | 6.0 | 0.00 | 0.05 | 0.00 | 63 | 1006.0 |
| 20260505183907 | 50 | 350 | 3.0 | 5.0 | 0.00 | 0.05 | 0.00 | 63 | 1005.9 |
| 20260505182907 | 50 | 343 | 3.0 | 9.0 | 0.00 | 0.05 | 0.00 | 61 | 1005.8 |
| 20260505182408 | 50 | 20 | 4.0 | 8.0 | 0.00 | 0.05 | 0.00 | 66 | 1005.9 |
| 20260505181908 | 49 | 335 | 3.0 | 7.0 | 0.00 | 0.05 | 0.00 | 61 | 1006.0 |
| 20260505181407 | 49 | 265 | 3.0 | 8.0 | 0.00 | 0.05 | 0.00 | 64 | 1005.8 |
| 20260505180907 | 49 | 333 | 5.0 | 8.0 | 0.00 | 0.05 | 0.00 | 64 | 1005.6 |
| 20260505180408 | 49 | 349 | 2.0 | 5.0 | 0.00 | 0.05 | 0.00 | 63 | 1005.7 |
| 20260505175907 | 49 | 341 | 2.0 | 6.0 | 0.00 | 0.05 | 0.00 | 63 | 1005.6 |
| 20260505175407 | 50 | 346 | 2.0 | 8.0 | 0.00 | 0.05 | 0.00 | 60 | 1005.6 |
| 20260505174907 | 51 | 351 | 3.0 | 6.0 | 0.00 | 0.05 | 0.00 | 60 | 1005.4 |
| 20260505174407 | 51 | 339 | 3.0 | 7.0 | 0.00 | 0.05 | 0.00 | 61 | 1005.5 |
| 20260505173908 | 51 | 340 | 3.0 | 6.0 | 0.00 | 0.05 | 0.00 | 60 | 1005.5 |